"Pseudo-MPEC" for P11dgtE

Created 2021 Feb 28 15:07:06 UT using Find_Orb

Click here for an explanation of pseudo-MPECs

 
 Astrometry: 
     P11dgtE  C2021 02 12lIAstrometry@Fk8oQQiNRr%T08AG7?+3(#[83(-(-E(#;yTFh]RF51
     P11dgtE  C2021 02 12;b`redacted;KT(rE!XX][nvnvl$S!aVp`clickep(CcnrEAhereF51
     P11dgtE  C2021 02 12rFy*^ZxZ(t^SY::foriexplanation0T.[\0]ZNNGEosFH#*\?PDF51
     P11dgtE ^C2021 02 16.50020409 32 53.939+49 43 44.51   ~2GE7 24.00GVNEOCP568
     P11dgtE ^C2021 02 16.50357509 32 53.646+49 43 46.69   ~2GE7 23.35GVNEOCP568

Station data:
(568) Mauna Kea  (N19.826116 W155.472200)  US/Hawaii.
(F51) Pan-STARRS 1, Haleakala  (N20.707235 W156.255910)  US/Hawaii.
   Observers N. Primak, A. Schultz, S. Watters, J. Thiel, T. Goggia. Measurer
   PS1 Science Consortium. 1.8-m Ritchey-Chrétien + CCD.

Orbital elements:  P11dgtE
   Perihelion 2022 Mar 28.446411 +/- 348.036 TT = 10:42:49 (JD 2459666.946411)
Epoch 2021 Feb 16.0 TT = JDT 2459261.5   Earth MOID: 0.7498   AutoNEOCP
M 197.87154186 +/- 121.82240        (J2000 ecliptic)
n   0.39987641 +/- 0.156128         Peri.  210.03608 +/- 65.776262
a   1.82467499 +/- 0.474942         Node    94.34267 +/- 26.967629
e   0.0358171 +/- 0.232723          Incl.   23.52861 +/- 22.589539
P   2.46/900.26d           H 20.8   G  0.15   U 11.5  SR
q 1.75932031 +/- 0.572143    Q 1.89002968 +/- 7.98284
From 5 observations 2021 Feb. 12-16; mean residual 0".06
Residuals in arcseconds: 
210212 F51  .06+  .06+    210212 F51  .02+  .04-    210216 568  .09+  .02-    
210212 F51  .08-  .02-    210216 568  .08-  .02+    

Ephemerides (geocentric):
Date (UTC) HH   RA              Dec         delta   r     elong  mag " sig PA
---- -- -- --  -------------   -----------  ------ ------ -----  --- ---- ---
2021 02 28 15  09 16 53.826   +51 11 34.83  1.0655 1.8852 132.9 23.4 1111  57
2021 02 28 16  09 16 51.030   +51 11 43.23  1.0658 1.8852 132.9 23.4 1117  57
2021 02 28 17  09 16 48.239   +51 11 51.56  1.0660 1.8852 132.8 23.4 1123  57
2021 02 28 18  09 16 45.452   +51 11 59.83  1.0663 1.8852 132.8 23.4 1130  57
2021 02 28 19  09 16 42.669   +51 12 08.05  1.0665 1.8852 132.8 23.4 1136  57
2021 02 28 20  09 16 39.891   +51 12 16.19  1.0667 1.8852 132.7 23.4 1143  57
2021 02 28 21  09 16 37.117   +51 12 24.28  1.0670 1.8852 132.7 23.4 1149  57
2021 02 28 22  09 16 34.348   +51 12 32.31  1.0672 1.8852 132.7 23.4 1156  57
2021 02 28 23  09 16 31.583   +51 12 40.27  1.0675 1.8852 132.6 23.4 1162  57
2021 03 01 00  09 16 28.823   +51 12 48.17  1.0677 1.8851 132.6 23.4 1169  57
2021 03 01 01  09 16 26.067   +51 12 56.01  1.0680 1.8851 132.6 23.4 1175  57
2021 03 01 02  09 16 23.316   +51 13 03.79  1.0682 1.8851 132.5 23.4 1182  57
2021 03 01 03  09 16 20.569   +51 13 11.51  1.0684 1.8851 132.5 23.4 1188  57
2021 03 01 04  09 16 17.827   +51 13 19.16  1.0687 1.8851 132.5 23.4 1195  57
2021 03 01 05  09 16 15.089   +51 13 26.76  1.0689 1.8851 132.4 23.4 1202  57
2021 03 01 06  09 16 12.355   +51 13 34.29  1.0692 1.8851 132.4 23.4 1208  57
2021 03 01 07  09 16 09.626   +51 13 41.76  1.0694 1.8851 132.4 23.4 1215  57
2021 03 01 08  09 16 06.902   +51 13 49.17  1.0697 1.8851 132.3 23.4 1222  57
2021 03 01 09  09 16 04.182   +51 13 56.52  1.0699 1.8851 132.3 23.4 1228  57
2021 03 01 10  09 16 01.467   +51 14 03.81  1.0701 1.8851 132.3 23.4 1235  57
2021 03 01 11  09 15 58.756   +51 14 11.04  1.0704 1.8851 132.2 23.4 1242  57
2021 03 01 12  09 15 56.050   +51 14 18.20  1.0706 1.8851 132.2 23.4 1248  57
2021 03 01 13  09 15 53.348   +51 14 25.31  1.0709 1.8851 132.2 23.4 1255  57
2021 03 01 14  09 15 50.651   +51 14 32.35  1.0711 1.8850 132.1 23.4 1262  57
2021 03 01 15  09 15 47.959   +51 14 39.34  1.0714 1.8850 132.1 23.4 1269  57
2021 03 01 16  09 15 45.271   +51 14 46.26  1.0716 1.8850 132.1 23.4 1275  57
2021 03 01 17  09 15 42.587   +51 14 53.12  1.0719 1.8850 132.0 23.4 1282  57
2021 03 01 18  09 15 39.908   +51 14 59.92  1.0721 1.8850 132.0 23.4 1289  57
2021 03 01 19  09 15 37.234   +51 15 06.66  1.0724 1.8850 132.0 23.4 1296  57
2021 03 01 20  09 15 34.565   +51 15 13.34  1.0726 1.8850 131.9 23.4 1303  57
2021 03 01 21  09 15 31.900   +51 15 19.96  1.0729 1.8850 131.9 23.4 1310  57
2021 03 01 22  09 15 29.239   +51 15 26.52  1.0731 1.8850 131.9 23.4 1316  57
2021 03 01 23  09 15 26.584   +51 15 33.01  1.0733 1.8850 131.8 23.4 1323  57
2021 03 02 00  09 15 23.933   +51 15 39.45  1.0736 1.8850 131.8 23.4 1330  57
2021 03 02 01  09 15 21.286   +51 15 45.83  1.0738 1.8850 131.8 23.4 1337  58
2021 03 02 02  09 15 18.645   +51 15 52.15  1.0741 1.8850 131.7 23.4 1344  58
2021 03 02 03  09 15 16.007   +51 15 58.40  1.0743 1.8850 131.7 23.4 1351  58
2021 03 02 04  09 15 13.375   +51 16 04.60  1.0746 1.8849 131.7 23.5 1358  58
2021 03 02 05  09 15 10.747   +51 16 10.74  1.0748 1.8849 131.6 23.5 1365  58
2021 03 02 06  09 15 08.124   +51 16 16.81  1.0751 1.8849 131.6 23.5 1372  58
2021 03 02 07  09 15 05.506   +51 16 22.83  1.0753 1.8849 131.6 23.5 1379  58
2021 03 02 08  09 15 02.892   +51 16 28.79  1.0756 1.8849 131.5 23.5 1386  58
2021 03 02 09  09 15 00.283   +51 16 34.68  1.0758 1.8849 131.5 23.5 1393  58
2021 03 02 10  09 14 57.679   +51 16 40.52  1.0761 1.8849 131.5 23.5 1400  58
2021 03 02 11  09 14 55.079   +51 16 46.30  1.0763 1.8849 131.4 23.5 1407  58
2021 03 02 12  09 14 52.484   +51 16 52.01  1.0766 1.8849 131.4 23.5 1415  58
2021 03 02 13  09 14 49.894   +51 16 57.67  1.0768 1.8849 131.4 23.5 1422  58
2021 03 02 14  09 14 47.309   +51 17 03.27  1.0771 1.8849 131.3 23.5 1429  58